Regional Weather Roundup
Issued by NWS

Home | Current Version | Previous Version | Graphics & Text | Print | Product List | Glossary On
Versions: 1 2 3 4 5 6 7 8 9 10 11 12 13 14 15 16 17 18 19 20 21 22 23 24 25 26 27 28 29 30 31 32 33 34 35 36 37 38 39 40 41 42 43 44 45 46 47 48 49 50
000
ASUS43 KLSX 291707
RWRMO

WEATHER SUMMARY FOR MISSOURI
NATIONAL WEATHER SERVICE SPRINGFIELD MO
1200 PM CDT WED JUL 29 2015

NOTE: "FAIR" INDICATES FEW OR NO CLOUDS BELOW 12,000 FEET WITH NO
       SIGNIFICANT WEATHER AND/OR OBSTRUCTIONS TO VISIBILITY.
       CURRENT SKY AND/OR WEATHER CONDITIONS ARE NOT AVAILABLE FOR
       CHILLICOTHE AND FARMINGTON.

MOZ001>031-035>038-043-044-053-054-291800-
...NORTHERN AND WESTERN MISSOURI...

CITY           SKY/WX    TMP DP  RH WIND       PRES   REMARKS
KANSAS CTY INT PTSUNNY   79  73  82 NW7       30.16R
KANSAS C DTWN  CLOUDY    81  72  74 VRB7      30.14R
LEE`S SUMMIT   PTSUNNY   77  70  79 N8        30.15R
ST JOSEPH      PTSUNNY   82  70  66 N9        30.15R
CHILLICOTHE      N/A     82  69  64 VRB6      30.14S
KIRKSVILLE     CLOUDY    80  65  59 N8        30.13S

$$
MOZ066>068-077>081-088>096-101>105-291800-
...SOUTHWEST MISSOURI...

CITY           SKY/WX    TMP DP  RH WIND       PRES   REMARKS
SPRINGFIELD    SUNNY     89  71  55 VRB3      30.10S HX  95
JOPLIN         SUNNY     92  70  48 E6        30.09F HX  97

$$
MOZ032>034-039>042-045>050-055>058-069>072-291800-
...CENTRAL MISSOURI...

CITY           SKY/WX    TMP DP  RH WIND       PRES   REMARKS
COLUMBIA       MOSUNNY   82  69  64 N10       30.12R
JEFFERSON CITY MOSUNNY   83  68  60 N9        30.09S
ROLLA          PTSUNNY   81  71  71 N13G22    30.09R
SEDALIA        MOSUNNY   85  71  63 NE13      30.14S HX  90
WHITEMAN AFB   MOSUNNY   84  71  63 N12       30.10F
WARRENSBURG    MOSUNNY   81  70  69 NE5       30.11F
OSAGE BEACH    PTSUNNY   81  70  69 NE10      30.11S

$$
MOZ051-052-059>065-291800-
...EAST CENTRAL MISSOURI...

CITY           SKY/WX    TMP DP  RH WIND       PRES   REMARKS
ST LOUIS INTL  PTSUNNY   84  71  65 N12       30.06R
SPIRIT OF STL  CLOUDY    84  73  69 NW5       30.05S HX  90
ST CHARLES     PTSUNNY   85  74  69 N10       30.04S HX  92

$$
MOZ072>076-082>087-097>100-106>115-291800-
...SOUTH CENTRAL AND SOUTHEAST MISSOURI...

CITY           SKY/WX    TMP DP  RH WIND       PRES   REMARKS
CAPE GIRARDEAU MOSUNNY   94  77  57 W5        30.00S HX 108
FARMINGTON     MOSUNNY   90  75  62 NW9       30.07S HX 100
POPLAR BLUFF   SUNNY     94  77  57 NW6       30.00F HX 108
WEST PLAINS    SUNNY     91  72  53 NW7       30.10F HX  98

$$


USA.gov is the U.S. government's official web portal to all federal, state and local government web resources and services.